Terminal Aerodrome Forecast
Issued by NWS La Crosse, WI

Home | Current Version | Previous Version | Text Only | Print | Product List | Glossary On
Versions: 1 2 3 4 5 6 7 8 9 10 11 12 13 14 15 16 17 18 19 20 21 22 23 24 25 26 27 28 29 30 31 32 33 34 35 36 37 38 39 40 41 42 43 44 45 46 47 48 49 50
000
FTUS43 KARX 300400 AAB
TAFRST
TAF AMD
KRST 300400Z 3004/3024 VRB04KT P6SM -RA OVC050
     FM300800 29005KT 1SM BR OVC006
     FM301600 31006KT 3SM BR OVC015
     FM301900 31006KT P6SM BKN025=

USA.gov is the U.S. government's official web portal to all federal, state and local government web resources and services.